Voltar ao catálogo

THOR ABLESTAR DEB

AtivoLEO
NORAD 4028·DEBRIS·🇺🇸 United States

Lançado Jun 29, 1961 de Cape Canaveral Space Force Station

Loading…

Próximas Passagens (próximas 24 horas)

TLE

AtualizadoSource: Space-Track

Época: Sep 14, 2026, 13:15 UTC

1 04028U 61015JQ  26257.55244422  .00000899  00000-0  18258-3 0  9990
2 04028  66.7488  93.2076 0099144 284.1061  74.9052 14.63260542386895

Acompanhe THOR ABLESTAR DEB em tempo real com AllMySat

Download on the App Store